Location: Gwatt
(46.7204°N, 7.6223°E)
Time: 17:35:35
(UTC+00:00)

deb Explorer IX - Pass Details

Date: 29 January 2021
Orbit: 537 x 1102 km, 38.8° (Epoch: 04 March)

Event Time Altitude Azimuth Distance (km) Brightness Sun altitude
Rises 14:21:03 0° 217° (SW) 3,902 ? 16.3°
Reaches altitude 10° 14:24:24 10° 204° (SSW) 2,927 ? 16.0°
Maximum altitude 14:29:54 24° 155° (SSE) 2,016 ? 15.3°
Drops below altitude 10° 14:35:04 10° 104° (ESE) 2,741 ? 14.8°
Sets 14:38:06 0° 91° (E) 3,602 ? 14.4°
